Change the Weather History Date:

Friday, November 30, 2012

  Actual Average (KRDD) Record (KRDD)
Temperature  
Mean Temperature 50 °F -  
Max Temperature 55 °F 57 °F 74 °F (2013)
Min Temperature 44 °F 38 °F 30 °F (2006)
Degree Days  
Heating Degree Days 16    
Cooling Degree Days 0    
Moisture  
Dew Point 46 °F    
Average Humidity 91    
Maximum Humidity 100    
Minimum Humidity 67    
Precipitation  
Precipitation 0.30 in 0.21 in 1.46 in (1987)
Month to date precipitation 4.48  
Year to date precipitation 28.35  
Since 1 July precipitation 7.49  
Sea Level Pressure  
Sea Level Pressure 29.75 in    
Wind  
Wind Speed 1 mph (SSW)    
Max Wind Speed 9 mph    
Max Gust Speed -    
Visibility 6 miles    
Events      
T = Trace of Precipitation, MM = Missing Value Source: NWS Daily Summary

Daily Weather History Graph

Daily Weather History Graph

Search for Another Location

Airport or City:

Trip Planner

Search our weather history database for the weather conditions in past years. The results will help you decide how hot, cold, wet, or windy it might be!

Date:

Astronomy

Nov. 30, 2012 Rise Set
Actual Time 7:16 AM PST 4:44 PM PST
Civil Twilight 6:45 AM PST 5:15 PM PST
Nautical Twilight 6:11 AM PST 5:49 PM PST
Astronomical Twilight 5:38 AM PST 6:22 PM PST
Moon 6:44 PM PST (11/30) 8:51 AM PST (11/30)
Length of Visible Light 10h 29m
Length of Day
9h 28m
Waning Gibbous, 96% of the Moon is Illuminated
Nov 30
Waning Gibbous
Dec 6
Last Quarter
Dec 13
New
Dec 19
First Quarter
Dec 28
Full

Hourly Weather History & Observations

Time (PST) Temp. Windchill Dew Point Humidity Pressure Visibility Wind Dir Wind Speed Gust Speed Precip Events Conditions
12:15 AM 48.2 °F - 46.4 °F 93% 29.65 in 2.5 mi Calm Calm - N/A   Unknown
12:35 AM 48.2 °F - 46.4 °F 93% 29.65 in 1.8 mi Calm Calm - N/A   Unknown
12:55 AM 48.2 °F - 46.4 °F 93% 29.64 in 2.5 mi Calm Calm - 0.01 in   Unknown
1:15 AM 48.2 °F - 46.4 °F 93% 29.64 in 0.5 mi Calm Calm - 0.02 in   Unknown
1:35 AM 48.2 °F - 46.4 °F 93% 29.64 in 0.8 mi Calm Calm - 0.03 in   Unknown
1:55 AM 48.2 °F - 46.4 °F 93% 29.64 in 1.5 mi Calm Calm - 0.05 in   Unknown
2:15 AM 48.2 °F - 46.4 °F 93% 29.64 in 1.2 mi Calm Calm - 0.02 in   Unknown
2:35 AM 48.2 °F - 46.4 °F 93% 29.63 in 2.5 mi Calm Calm - 0.04 in   Unknown
2:55 AM 48.2 °F - 46.4 °F 93% 29.64 in 5.0 mi Calm Calm - 0.04 in   Unknown
3:15 AM 48.2 °F - 46.4 °F 93% 29.66 in 3.0 mi Calm Calm - 0.02 in   Unknown
3:35 AM 50.0 °F - 48.2 °F 94% 29.65 in 5.0 mi Calm Calm - 0.08 in   Unknown
3:55 AM 48.2 °F - 48.2 °F 100% 29.64 in 4.0 mi Calm Calm - 0.10 in   Unknown
4:15 AM 48.2 °F - 46.4 °F 93% 29.65 in 3.0 mi Calm Calm - N/A   Unknown
4:35 AM 48.2 °F - 48.2 °F 100% 29.64 in 5.0 mi WNW 3.5 mph - 0.02 in   Unknown
4:55 AM 48.2 °F - 46.4 °F 93% 29.64 in 3.0 mi Calm Calm - 0.03 in   Unknown
5:15 AM 48.2 °F - 46.4 °F 93% 29.64 in 2.5 mi Calm Calm - 0.01 in   Unknown
5:35 AM 46.4 °F - 46.4 °F 100% 29.65 in 1.5 mi Calm Calm - 0.01 in   Unknown
5:55 AM 46.4 °F - 46.4 °F 100% 29.67 in 9.0 mi Calm Calm - 0.01 in   Unknown
6:15 AM 48.2 °F - 46.4 °F 93% 29.68 in 2.5 mi Calm Calm - N/A   Unknown
6:35 AM 48.2 °F - 46.4 °F 93% 29.68 in 9.0 mi SSE 3.5 mph - N/A   Unknown
6:55 AM 48.2 °F - 46.4 °F 93% 29.68 in 8.0 mi Calm Calm - N/A   Unknown
7:15 AM 46.4 °F - 46.4 °F 100% 29.69 in 7.0 mi Calm Calm - N/A   Unknown
7:35 AM 46.4 °F - 46.4 °F 100% 29.70 in 3.0 mi Calm Calm - N/A   Unknown
7:55 AM 46.4 °F 44.3 °F 46.4 °F 100% 29.71 in 3.0 mi South 4.6 mph - N/A   Unknown
8:15 AM 48.2 °F - 46.4 °F 93% 29.72 in 5.0 mi Calm Calm - 0.01 in   Unknown
8:35 AM 48.2 °F - 46.4 °F 93% 29.72 in 5.0 mi Calm Calm - 0.01 in   Unknown
8:55 AM 48.2 °F - 46.4 °F 93% 29.72 in 5.0 mi Calm Calm - 0.01 in   Unknown
9:15 AM 48.2 °F - 46.4 °F 93% 29.73 in 8.0 mi Calm Calm - N/A   Unknown
9:35 AM 48.2 °F - 46.4 °F 93% 29.74 in 8.0 mi Calm Calm - N/A   Unknown
9:55 AM 48.2 °F - 46.4 °F 93% 29.75 in 5.0 mi SSW 4.6 mph - N/A   Unknown
10:15 AM 50.0 °F - 46.4 °F 87% 29.75 in 10.0 mi SSW 5.8 mph - N/A   Unknown
10:35 AM 50.0 °F - 44.6 °F 82% 29.76 in 8.0 mi South 5.8 mph - N/A   Unknown
10:55 AM 50.0 °F - 46.4 °F 87% 29.77 in 7.0 mi SSW 6.9 mph - 0.01 in   Unknown
11:15 AM 50.0 °F - 44.6 °F 82% 29.77 in 10.0 mi South 4.6 mph - N/A   Unknown
11:35 AM 50.0 °F - 44.6 °F 82% 29.76 in 10.0 mi South 5.8 mph - N/A   Unknown
11:55 AM 50.0 °F - 44.6 °F 82% 29.75 in 10.0 mi South 5.8 mph - N/A   Unknown
12:15 PM 53.6 °F - 44.6 °F 72% 29.76 in 10.0 mi South 4.6 mph - N/A   Unknown
12:35 PM 51.8 °F - 44.6 °F 76% 29.75 in 10.0 mi South 4.6 mph - N/A   Unknown
12:55 PM 53.6 °F - 44.6 °F 72% 29.76 in 10.0 mi South 6.9 mph - N/A   Unknown
1:15 PM 55.4 °F - 44.6 °F 67% 29.76 in 10.0 mi SSW 5.8 mph - N/A   Unknown
1:35 PM 53.6 °F - 44.6 °F 72% 29.75 in 10.0 mi South 8.1 mph - N/A   Unknown
1:55 PM 53.6 °F - 44.6 °F 72% 29.76 in 10.0 mi SSW 6.9 mph - N/A   Unknown
2:15 PM 55.4 °F - 44.6 °F 67% 29.77 in 10.0 mi SSW 5.8 mph - N/A   Unknown
2:35 PM 53.6 °F - 42.8 °F 67% 29.76 in 10.0 mi SSW 4.6 mph - N/A   Unknown
2:55 PM 51.8 °F - 44.6 °F 76% 29.78 in 4.0 mi SSW 9.2 mph - 0.01 in   Unknown
3:15 PM 51.8 °F - 44.6 °F 76% 29.78 in 10.0 mi SSW 4.6 mph - N/A   Unknown
3:35 PM 50.0 °F - 46.4 °F 87% 29.79 in 10.0 mi Calm Calm - N/A   Unknown
3:55 PM 50.0 °F - 48.2 °F 94% 29.79 in 10.0 mi Calm Calm - N/A   Unknown
4:15 PM 50.0 °F - 46.4 °F 87% 29.79 in 10.0 mi Calm Calm - N/A   Unknown
4:35 PM 50.0 °F - 44.6 °F 82% 29.79 in 10.0 mi Calm Calm - N/A   Unknown
4:55 PM 48.2 °F - 46.4 °F 93% 29.79 in 10.0 mi Calm Calm - N/A   Unknown
5:15 PM 46.4 °F - 44.6 °F 93% 29.80 in 10.0 mi Calm Calm - N/A   Unknown
5:35 PM 46.4 °F - 44.6 °F 93% 29.81 in 10.0 mi Calm Calm - N/A   Unknown
5:55 PM 46.4 °F 45.2 °F 44.6 °F 93% 29.81 in 0.8 mi North 3.5 mph - N/A   Unknown
6:15 PM 44.6 °F - 44.6 °F 100% 29.81 in 3.0 mi Calm Calm - N/A   Unknown
6:35 PM 44.6 °F - 44.6 °F 100% 29.81 in 9.0 mi Calm Calm - N/A   Unknown
6:55 PM 44.6 °F - 44.6 °F 100% 29.82 in 4.0 mi Calm Calm - N/A   Unknown
7:15 PM 44.6 °F - 44.6 °F 100% 29.83 in 5.0 mi Calm Calm - N/A   Unknown
7:35 PM 44.6 °F - 44.6 °F 100% 29.83 in 4.0 mi Calm Calm - N/A   Unknown
7:55 PM 44.6 °F - 44.6 °F 100% 29.84 in 5.0 mi Calm Calm - N/A   Unknown
8:15 PM 44.6 °F - 44.6 °F 100% 29.85 in 5.0 mi Calm Calm - N/A   Unknown
8:35 PM 44.6 °F - 44.6 °F 100% 29.85 in 4.0 mi Calm Calm - N/A   Unknown
8:55 PM 44.6 °F 43.1 °F 44.6 °F 100% 29.85 in 6.0 mi NNW 3.5 mph - N/A   Unknown
9:15 PM 44.6 °F 43.1 °F 44.6 °F 100% 29.85 in 5.0 mi NNE 3.5 mph - N/A   Unknown
9:35 PM 46.4 °F - 44.6 °F 93% 29.85 in 8.0 mi Calm Calm - N/A   Unknown
9:55 PM 46.4 °F - 44.6 °F 93% 29.85 in 8.0 mi Calm Calm - N/A   Unknown
10:15 PM 46.4 °F - 44.6 °F 93% 29.85 in 9.0 mi Calm Calm - N/A   Unknown
10:35 PM 44.6 °F - 44.6 °F 100% 29.85 in 6.0 mi Calm Calm - N/A   Unknown
10:55 PM 46.4 °F - 44.6 °F 93% 29.85 in 9.0 mi Calm Calm - N/A   Unknown
11:15 PM 46.4 °F - 44.6 °F 93% 29.84 in 8.0 mi Calm Calm - N/A   Unknown
11:35 PM 44.6 °F - 44.6 °F 100% 29.84 in 5.0 mi Calm Calm - 0.01 in   Unknown
11:55 PM 44.6 °F - 44.6 °F 100% 29.84 in 3.0 mi Calm Calm - 0.03 in   Unknown